{"data":{"norad_id":67982,"epoch":"2026-05-25T00:50:01.376160Z","epoch_age_seconds":71707,"freshness":"FRESH","line1":"1 67982U 26038X   26145.03473815  .00016283  00000+0  50540-3 0  9996","line2":"2 67982  97.2840 155.1303 0001455 108.1284 252.0117 15.33457176 14949","mean_motion":15.33457176,"eccentricity":0.0001455,"inclination_deg":97.284,"raan_deg":155.1303,"arg_perigee_deg":108.1284,"mean_anomaly_deg":252.0117,"bstar":0.0005054,"rev_number":1494,"period_min":93.905459020135,"perigee_km":464.51119731402,"apogee_km":466.50269770275,"semimajor_km":6843.6439475084,"source":"CELESTRAK","updated_at":"2026-05-25T13:38:21.777551Z"}}